SCP
0 0 0 0 0 0 0 0 0 0 0 0 0 0 0 0 0 0 0 0 0 0 -0 -0 -0 -0 0 0 0 0 -0 -0 -0 -0 -0 -0 -0 -0 0 -0 0 0 0
0 0 0 0 0 0 0 0 0 0 0 0 0 0 0 0 0 0 0 0 0 0 0 0 -0 0 0 0 0 0 0 -0 -0 -0 -0 -0 -0 -0 0 0 -0 0 0
0 0 0 0 0 0 0 0 0 0 0 0 0 0 0 0 0 0 0 0 0 0 0 0 0 0 0 0 0 0 0 0 0 0 0 0 -0 0 0 0 0 0 0
0 0 0 0 0 0 0 0 0 0 0 0 0 0 0 0 0 0 0 0 0 0 0 0 0 0 0 0 0 0 0 0 0 -0 -0 0 0 0 0 0 0 0 0
0 0 0 0 0 0 0 0 0 0 0 0 0 0 0 0 0 0 0 0 0 0 0 0 0 0 0 0 0 0 0 0 0 -0 0 0 0 0 0 0 0 0 0
0 0 0 0 0 0 0 0 0 0 0 0 0 0 0 0 0 0 0 0 0 0 0 0 0 0 0 0 0 0 0 0 0 -0 0 0 0 0 0 0 0 0 0
0 0 0 0 0 0 0 0 0 0 0 0 0 0 0 0 0 0 0 0 0 0 0 0 0 0 0 0 0 0 0 0 -0 0 0 0 0 0 0 0 0 0 0
0 0 0 0 0 0 0 0 0 0 0 0 0 0 0 0 0 0 0 0 0 0 0 0 0 0 0 0 0 0 0 0 0 0 0 0 0 0 0 0 0 0 0
0 0 0 0 0 0 0 0 0 0 0 0 0 0 0 0 0 0 0 0 0 0 0 0 0 0 0 0 0 0 0 0 -0 0 0 0 0 0 0 0 0 0 0
0 0 0 0 0 0 0 0 0 0 0 0 0 0 0 0 0 0 0 0 0 0 0 0 0 0 0 0 0 0 0 0 0 0 0 0 0 0 0 0 0 0 0
0 0 0 0 0 0 0 0 0 0 0 0 0 0 0 0 0 0 0 0 0 0 0 0 0 0 0 0 0 0 0 0 0 0 0 0 0 0 0 0 0 0 0
0 0 0 0 0 0 0 0 0 0 0 0 0 0 0 0 0 0 0 0 0 0 0 0 0 0 0 0 0 0 0 0 0 0 0 0 0 0 0 0 0 0 0
0 0 0 0 0 0 0 0 0 0 0 0 0 0 0 0 0 0 0 0 0 0 0 0 0 0 0 0 0 0 0 0 0 0 0 0 0 0 0 0 0 0 0
0 0 0 0 0 0 0 0 0 0 0 0 0 0 0 0 0 0 0 0 0 0 0 0 0 0 0 0 0 0 0 0 0 0 0 0 0 0 0 0 0 0 0
0 0 0 0 0 0 0 0 0 0 0 0 0 0 0 1 1 1 1 0 0 0 0 0 0 0 0 0 0 0 0 0 0 0 0 0 0 0 0 0 0 0 0
0 0 0 0 0 0 0 0 0 0 0 0 0 0 0 1 1 1 0 0 1 1 1 0 0 0 0 0 0 0 0 0 0 0 0 0 0 0 0 0 0 0 0
-0 -0 0 0 0 0 0 0 0 0 0 0 0 0 0 0 0 0 0 0 0 0 0 0 0 0 0 0 0 0 0 0 0 0 0 0 0 0 0 0 0 0 0
0 0 0 0 0 0 0 0 0 0 0 0 0 0 0 0 0 0 0 0 0 0 0 0 0 0 0 0 0 0 0 0 0 0 0 0 0 0 0 0 0 0 0
0 0 0 0 0 0 0 0 0 0 0 0 0 0 0 0 0 0 0 0 0 0 0 0 0 0 0 0 0 0 0 0 0 0 0 0 0 0 0 0 0 0 0
0 0 0 0 0 0 0 0 0 0 0 0 0 0 0 0 0 0 0 0 0 0 0 0 0 0 0 0 0 0 0 0 0 0 0 0 0 0 0 0 0 0 0
-0 0 0 0 0 0 0 0 0 0 0 0 0 0 0 0 0 0 0 0 0 0 0 0 0 0 0 0 0 0 0 0 0 0 0 0 0 0 0 0 0 0 0
-0 -0 -0 0 0 0 -0 0 0 0 0 0 0 0 0 0 0 0 0 1 0 0 0 0 0 0 0 0 0 0 0 0 0 0 0 0 0 0 0 0 0 0 0
-0 -0 -0 -0 -0 -0 0 -0 0 0 0 0 0 0 0 0 0 0 0 0 0 0 0 0 0 0 0 0 0 0 0 0 0 0 0 0 0 0 0 0 0 0 0
0 0 -0 -0 -0 -0 -0 -0 -0 -0 0 0 0 0 0 0 0 0 0 0 0 0 0 0 0 0 0 0 0 0 0 0 0 0 0 0 0 0 0 0 0 0 0
0 0 0 0 0 -0 -0 -0 -0 -0 -0 -0 0 0 0 0 0 0 0 0 0 0 0 0 0 0 0 0 0 0 0 0 0 0 0 0 0 0 0 0 0 0 0
0 0 0 0 0 0 -0 -0 -0 0 0 -0 0 0 -0 0 0 0 0 0 0 0 0 0 0 0 0 0 0 0 0 0 0 0 0 0 0 0 0 0 0 0 0
Wind_Speed_500mb
26 14 10 12 19 24 27 32 32 30 28 26 24 22 21 20 20 22 26 26 26 27 24 22 22 19 15 13 5 2 4 8 9 10 12 13 14 15 17 25 21 14 13
22 15 11 16 21 23 27 31 33 33 31 29 27 25 24 23 22 23 26 28 29 28 26 23 21 19 16 13 6 7 6 9 10 10 9 9 10 10 11 10 12 11 6
19 22 19 18 24 27 28 32 34 34 33 31 30 29 28 27 26 27 29 29 31 30 27 25 24 23 20 15 11 11 9 8 9 10 16 12 5 6 5 5 4 5 5
20 9 22 21 25 30 31 33 36 36 35 34 33 32 31 30 29 29 31 34 34 32 30 27 25 27 23 18 15 14 12 10 10 10 15 10 4 3 5 3 3 4 7
22 12 13 22 29 32 35 35 36 38 38 38 37 34 33 32 31 31 33 36 37 37 35 34 34 32 27 22 19 17 14 12 10 10 9 9 8 11 7 6 4 3 7
32 22 19 28 28 37 39 39 38 40 41 41 40 38 37 35 34 35 35 36 38 39 38 37 37 34 29 25 21 18 16 13 11 7 9 14 11 17 13 8 9 7 8
37 32 21 32 30 37 43 43 43 43 44 44 42 40 39 38 37 37 37 38 39 39 38 36 34 32 30 27 23 19 15 13 11 12 13 16 15 24 18 14 12 10 10
38 33 33 31 25 28 42 47 48 48 47 47 46 43 41 40 40 40 38 38 40 40 35 33 31 32 32 29 25 20 14 12 13 14 16 16 30 25 21 18 16 12 11
33 36 28 24 27 23 31 45 52 52 52 51 51 48 46 43 42 42 41 41 41 39 35 34 32 31 32 31 28 23 18 14 11 16 18 18 33 27 25 22 18 15 13
35 34 34 33 29 24 32 34 48 55 54 56 53 52 50 47 45 44 44 44 44 42 43 43 40 37 34 36 34 28 22 19 17 20 22 23 34 29 30 25 21 18 16
41 42 39 38 29 29 31 35 41 51 56 58 58 54 53 53 51 51 50 49 48 49 49 48 47 43 37 37 38 34 28 24 22 24 24 30 29 32 34 29 24 21 19
42 38 27 22 19 27 26 33 39 42 52 60 60 58 57 58 54 50 54 55 53 54 55 52 50 46 43 47 44 42 37 32 30 31 31 33 31 33 36 32 27 25 21
45 42 40 36 29 19 16 24 35 41 46 55 63 63 63 59 57 55 56 60 63 62 62 61 58 55 56 54 54 52 48 44 37 38 39 37 35 36 37 35 30 27 24
53 51 49 45 42 36 25 16 29 39 51 51 57 65 68 69 66 65 62 61 66 71 70 69 66 65 65 59 59 58 54 48 44 44 45 41 38 38 39 38 32 30 28
55 57 58 55 52 49 43 32 28 30 47 57 56 59 67 71 76 73 72 67 66 66 70 73 72 73 69 61 64 61 59 53 52 49 47 46 41 41 41 40 35 34 32
55 57 60 61 61 59 54 46 39 39 39 49 62 64 68 74 79 83 84 78 71 74 71 77 78 77 68 62 64 68 65 62 55 52 51 51 45 44 44 42 39 37 36
55 56 56 57 59 62 63 60 55 44 47 50 51 65 67 75 79 91 96 90 87 84 80 82 79 78 71 67 72 71 67 63 57 55 53 52 49 48 48 47 44 40 39
57 58 59 57 55 57 58 61 61 57 49 54 49 58 72 74 80 80 88 97 96 88 84 85 83 86 80 74 79 74 75 64 61 59 55 55 54 52 53 51 48 46 45
57 59 61 60 59 58 54 54 52 56 57 52 57 52 61 71 77 80 86 91 93 97 95 92 89 94 86 85 83 83 72 64 64 61 59 59 58 58 58 54 52 52 50
57 59 60 60 60 59 58 53 51 49 51 52 50 52 51 59 74 79 83 91 92 94 98 95 95 91 90 94 83 82 79 70 67 62 59 60 61 62 60 58 56 58 56
56 63 64 65 63 63 58 60 60 60 54 53 50 57 61 62 53 80 85 86 98 98 98 90 102 101 97 98 89 83 79 73 67 65 61 61 64 66 63 62 62 59 63
55 60 68 67 64 61 57 58 54 59 65 61 55 53 64 66 70 57 85 89 96 100 96 98 102 96 94 102 100 84 59 72 75 72 70 68 68 67 67 67 66 64 67
55 59 63 68 67 61 59 58 59 60 58 63 62 64 57 64 77 73 67 89 94 99 101 98 102 102 98 102 109 88 28 30 49 79 80 80 72 73 73 73 71 70 71
52 52 56 62 67 66 62 63 63 64 69 71 78 80 75 62 65 85 77 69 98 101 102 110 112 111 102 108 110 107 88 50 30 26 60 73 78 79 78 77 76 76 74
47 51 54 57 62 69 67 59 62 65 63 67 72 80 81 76 66 76 86 81 87 101 100 106 112 111 111 103 112 109 110 75 73 31 28 46 65 81 81 81 80 77 76
44 49 54 58 62 68 72 66 60 61 68 70 67 73 79 82 75 64 85 86 75 101 100 102 112 111 109 110 112 111 111 108 84 79 46 37 47 59 74 82 82 82 79
Wind_Direction_500mb
330 265 283 218 200 199 192 192 196 198 200 203 204 205 203 199 196 195 192 190 186 180 183 184 188 190 196 211 204 156 152 140 139 128 120 111 107 108 107 110 92 123 99
354 300 273 223 213 211 203 200 202 206 207 210 213 215 213 213 212 207 201 195 191 187 188 192 192 197 198 196 238 191 189 143 138 128 114 121 125 120 117 119 136 123 127
349 338 304 240 221 221 216 210 210 212 215 217 221 221 222 221 218 212 205 200 198 198 200 198 197 200 223 251 240 199 198 169 151 126 89 62 162 134 135 136 141 139 141
352 313 308 261 236 229 226 221 218 219 222 225 228 229 227 223 220 216 211 209 207 206 208 209 210 224 238 248 226 209 204 188 168 146 95 159 211 201 200 203 172 141 134
358 332 271 287 250 241 236 232 226 227 231 233 235 235 232 229 224 220 218 217 217 220 221 223 226 237 240 234 214 209 210 205 191 162 175 182 217 237 244 228 224 235 208
10 356 300 294 262 247 243 240 235 232 234 239 240 238 236 233 230 228 225 222 223 224 227 232 237 234 231 214 208 212 216 214 210 164 202 225 173 247 241 240 275 277 244
357 351 348 325 302 260 249 248 245 241 240 240 240 239 239 239 237 235 232 228 226 227 230 234 230 221 211 211 213 216 220 224 218 208 218 236 217 236 246 259 266 275 263
349 349 341 335 331 285 261 255 253 250 246 246 245 243 242 243 243 240 236 231 228 226 222 222 217 210 213 216 217 218 221 230 231 217 222 219 233 247 256 263 270 272 261
351 352 353 340 321 317 277 264 257 253 248 246 246 245 246 246 245 242 236 231 225 215 215 218 224 224 225 223 221 218 219 227 225 230 232 230 249 251 259 264 271 271 256
357 355 350 340 329 313 301 276 263 257 253 250 245 245 245 248 246 241 236 230 222 214 217 221 231 236 237 236 224 221 224 230 234 234 258 240 252 258 260 263 263 263 252
2 4 359 354 341 319 299 279 268 263 252 253 251 244 242 243 245 239 234 230 224 221 222 225 232 237 236 238 227 226 234 243 251 250 264 264 264 258 259 260 259 254 248
355 355 335 327 341 331 305 291 282 271 259 249 247 238 241 238 236 240 237 231 228 227 226 229 234 235 237 238 237 234 242 248 255 263 267 275 267 254 254 254 252 249 247
342 337 336 335 336 317 280 286 275 275 262 262 251 241 238 239 236 229 237 234 229 227 228 228 230 234 235 241 241 239 245 250 261 268 270 276 268 252 249 250 248 248 245
335 333 328 328 329 326 311 263 283 277 274 257 259 252 241 241 235 232 236 234 235 229 227 229 230 230 236 238 243 250 245 249 262 268 272 273 266 253 246 248 246 245 244
329 327 325 322 319 319 322 308 253 255 273 272 254 252 246 241 241 235 233 232 234 235 232 230 232 233 236 236 244 249 246 248 261 264 267 269 262 250 243 244 245 245 243
339 330 323 320 314 311 309 309 303 260 241 275 273 251 245 244 241 239 237 230 224 232 229 232 236 237 238 238 240 234 244 256 258 261 263 264 256 246 241 242 244 244 243
343 338 334 327 320 312 306 302 300 296 260 247 274 269 254 252 248 246 244 241 236 241 238 236 237 238 237 239 238 241 246 256 255 258 260 259 254 244 240 240 241 240 240
347 343 337 332 326 318 313 307 300 296 284 262 253 272 267 256 255 251 248 246 245 238 236 238 236 237 235 237 241 244 252 249 252 256 257 255 251 243 239 238 238 235 231
353 347 343 339 333 325 318 313 307 298 292 280 254 264 272 262 258 256 253 251 250 246 240 241 233 242 235 234 240 249 247 252 249 252 253 252 248 243 241 237 236 235 235
357 354 349 345 340 335 328 319 309 305 295 285 261 247 250 265 263 256 251 252 252 250 245 240 236 235 236 237 238 242 249 249 247 247 251 252 247 242 239 238 235 234 236
359 358 357 351 347 343 340 332 321 314 305 297 282 257 246 247 255 262 254 249 249 247 245 244 232 231 237 234 234 234 237 237 240 244 247 249 247 244 239 237 238 234 235
356 357 358 356 351 348 340 338 330 321 312 305 301 284 253 246 246 254 257 251 245 248 241 245 232 226 234 234 230 230 228 232 236 239 245 247 249 245 240 238 236 236 237
355 355 356 357 355 350 344 339 334 329 320 312 299 292 285 260 251 251 253 252 248 245 241 243 237 235 242 237 233 230 210 217 237 242 240 246 244 244 242 239 238 236 237
351 352 354 356 358 355 350 345 344 342 334 327 318 305 293 287 267 251 253 259 248 247 241 241 241 240 244 243 230 230 230 237 199 211 236 240 239 238 240 240 238 237 238
350 352 353 354 358 360 356 349 346 341 336 332 326 317 305 290 282 259 257 251 254 243 242 239 243 236 241 242 244 231 230 221 227 218 222 226 232 234 236 237 238 238 239
351 353 355 356 359 1 0 355 349 346 343 340 334 325 316 307 294 283 255 254 261 246 238 236 244 247 244 244 247 235 239 226 219 224 215 227 232 234 235 236 237 238 237
Wind_Speed_850mb
26 14 10 12 19 24 27 32 32 30 28 26 24 22 21 20 20 22 26 26 26 27 24 22 22 19 15 13 5 2 4 8 9 10 12 13 14 15 17 25 21 14 13
22 15 11 16 21 23 27 31 33 33 31 29 27 25 24 23 22 23 26 28 29 28 26 23 21 19 16 13 6 7 6 9 10 10 9 9 10 10 11 10 12 11 6
19 22 19 18 24 27 28 32 34 34 33 31 30 29 28 27 26 27 29 29 31 30 27 25 24 23 20 15 11 11 9 8 9 10 16 12 5 6 5 5 4 5 5
20 9 22 21 25 30 31 33 36 36 35 34 33 32 31 30 29 29 31 34 34 32 30 27 25 27 23 18 15 14 12 10 10 10 15 10 4 3 5 3 3 4 7
22 12 13 22 29 32 35 35 36 38 38 38 37 34 33 32 31 31 33 36 37 37 35 34 34 32 27 22 19 17 14 12 10 10 9 9 8 11 7 6 4 3 7
32 22 19 28 28 37 39 39 38 40 41 41 40 38 37 35 34 35 35 36 38 39 38 37 37 34 29 25 21 18 16 13 11 7 9 14 11 17 13 8 9 7 8
37 32 21 32 30 37 43 43 43 43 44 44 42 40 39 38 37 37 37 38 39 39 38 36 34 32 30 27 23 19 15 13 11 12 13 16 15 24 18 14 12 10 10
38 33 33 31 25 28 42 47 48 48 47 47 46 43 41 40 40 40 38 38 40 40 35 33 31 32 32 29 25 20 14 12 13 14 16 16 30 25 21 18 16 12 11
33 36 28 24 27 23 31 45 52 52 52 51 51 48 46 43 42 42 41 41 41 39 35 34 32 31 32 31 28 23 18 14 11 16 18 18 33 27 25 22 18 15 13
35 34 34 33 29 24 32 34 48 55 54 56 53 52 50 47 45 44 44 44 44 42 43 43 40 37 34 36 34 28 22 19 17 20 22 23 34 29 30 25 21 18 16
41 42 39 38 29 29 31 35 41 51 56 58 58 54 53 53 51 51 50 49 48 49 49 48 47 43 37 37 38 34 28 24 22 24 24 30 29 32 34 29 24 21 19
42 38 27 22 19 27 26 33 39 42 52 60 60 58 57 58 54 50 54 55 53 54 55 52 50 46 43 47 44 42 37 32 30 31 31 33 31 33 36 32 27 25 21
45 42 40 36 29 19 16 24 35 41 46 55 63 63 63 59 57 55 56 60 63 62 62 61 58 55 56 54 54 52 48 44 37 38 39 37 35 36 37 35 30 27 24
53 51 49 45 42 36 25 16 29 39 51 51 57 65 68 69 66 65 62 61 66 71 70 69 66 65 65 59 59 58 54 48 44 44 45 41 38 38 39 38 32 30 28
55 57 58 55 52 49 43 32 28 30 47 57 56 59 67 71 76 73 72 67 66 66 70 73 72 73 69 61 64 61 59 53 52 49 47 46 41 41 41 40 35 34 32
55 57 60 61 61 59 54 46 39 39 39 49 62 64 68 74 79 83 84 78 71 74 71 77 78 77 68 62 64 68 65 62 55 52 51 51 45 44 44 42 39 37 36
55 56 56 57 59 62 63 60 55 44 47 50 51 65 67 75 79 91 96 90 87 84 80 82 79 78 71 67 72 71 67 63 57 55 53 52 49 48 48 47 44 40 39
57 58 59 57 55 57 58 61 61 57 49 54 49 58 72 74 80 80 88 97 96 88 84 85 83 86 80 74 79 74 75 64 61 59 55 55 54 52 53 51 48 46 45
57 59 61 60 59 58 54 54 52 56 57 52 57 52 61 71 77 80 86 91 93 97 95 92 89 94 86 85 83 83 72 64 64 61 59 59 58 58 58 54 52 52 50
57 59 60 60 60 59 58 53 51 49 51 52 50 52 51 59 74 79 83 91 92 94 98 95 95 91 90 94 83 82 79 70 67 62 59 60 61 62 60 58 56 58 56
56 63 64 65 63 63 58 60 60 60 54 53 50 57 61 62 53 80 85 86 98 98 98 90 102 101 97 98 89 83 79 73 67 65 61 61 64 66 63 62 62 59 63
55 60 68 67 64 61 57 58 54 59 65 61 55 53 64 66 70 57 85 89 96 100 96 98 102 96 94 102 100 84 59 72 75 72 70 68 68 67 67 67 66 64 67
55 59 63 68 67 61 59 58 59 60 58 63 62 64 57 64 77 73 67 89 94 99 101 98 102 102 98 102 109 88 28 30 49 79 80 80 72 73 73 73 71 70 71
52 52 56 62 67 66 62 63 63 64 69 71 78 80 75 62 65 85 77 69 98 101 102 110 112 111 102 108 110 107 88 50 30 26 60 73 78 79 78 77 76 76 74
47 51 54 57 62 69 67 59 62 65 63 67 72 80 81 76 66 76 86 81 87 101 100 106 112 111 111 103 112 109 110 75 73 31 28 46 65 81 81 81 80 77 76
44 49 54 58 62 68 72 66 60 61 68 70 67 73 79 82 75 64 85 86 75 101 100 102 112 111 109 110 112 111 111 108 84 79 46 37 47 59 74 82 82 82 79
Wind_Direction_850mb
330 265 283 218 200 199 192 192 196 198 200 203 204 205 203 199 196 195 192 190 186 180 183 184 188 190 196 211 204 156 152 140 139 128 120 111 107 108 107 110 92 123 99
354 300 273 223 213 211 203 200 202 206 207 210 213 215 213 213 212 207 201 195 191 187 188 192 192 197 198 196 238 191 189 143 138 128 114 121 125 120 117 119 136 123 127
349 338 304 240 221 221 216 210 210 212 215 217 221 221 222 221 218 212 205 200 198 198 200 198 197 200 223 251 240 199 198 169 151 126 89 62 162 134 135 136 141 139 141
352 313 308 261 236 229 226 221 218 219 222 225 228 229 227 223 220 216 211 209 207 206 208 209 210 224 238 248 226 209 204 188 168 146 95 159 211 201 200 203 172 141 134
358 332 271 287 250 241 236 232 226 227 231 233 235 235 232 229 224 220 218 217 217 220 221 223 226 237 240 234 214 209 210 205 191 162 175 182 217 237 244 228 224 235 208
10 356 300 294 262 247 243 240 235 232 234 239 240 238 236 233 230 228 225 222 223 224 227 232 237 234 231 214 208 212 216 214 210 164 202 225 173 247 241 240 275 277 244
357 351 348 325 302 260 249 248 245 241 240 240 240 239 239 239 237 235 232 228 226 227 230 234 230 221 211 211 213 216 220 224 218 208 218 236 217 236 246 259 266 275 263
349 349 341 335 331 285 261 255 253 250 246 246 245 243 242 243 243 240 236 231 228 226 222 222 217 210 213 216 217 218 221 230 231 217 222 219 233 247 256 263 270 272 261
351 352 353 340 321 317 277 264 257 253 248 246 246 245 246 246 245 242 236 231 225 215 215 218 224 224 225 223 221 218 219 227 225 230 232 230 249 251 259 264 271 271 256
357 355 350 340 329 313 301 276 263 257 253 250 245 245 245 248 246 241 236 230 222 214 217 221 231 236 237 236 224 221 224 230 234 234 258 240 252 258 260 263 263 263 252
2 4 359 354 341 319 299 279 268 263 252 253 251 244 242 243 245 239 234 230 224 221 222 225 232 237 236 238 227 226 234 243 251 250 264 264 264 258 259 260 259 254 248
355 355 335 327 341 331 305 291 282 271 259 249 247 238 241 238 236 240 237 231 228 227 226 229 234 235 237 238 237 234 242 248 255 263 267 275 267 254 254 254 252 249 247
342 337 336 335 336 317 280 286 275 275 262 262 251 241 238 239 236 229 237 234 229 227 228 228 230 234 235 241 241 239 245 250 261 268 270 276 268 252 249 250 248 248 245
335 333 328 328 329 326 311 263 283 277 274 257 259 252 241 241 235 232 236 234 235 229 227 229 230 230 236 238 243 250 245 249 262 268 272 273 266 253 246 248 246 245 244
329 327 325 322 319 319 322 308 253 255 273 272 254 252 246 241 241 235 233 232 234 235 232 230 232 233 236 236 244 249 246 248 261 264 267 269 262 250 243 244 245 245 243
339 330 323 320 314 311 309 309 303 260 241 275 273 251 245 244 241 239 237 230 224 232 229 232 236 237 238 238 240 234 244 256 258 261 263 264 256 246 241 242 244 244 243
343 338 334 327 320 312 306 302 300 296 260 247 274 269 254 252 248 246 244 241 236 241 238 236 237 238 237 239 238 241 246 256 255 258 260 259 254 244 240 240 241 240 240
347 343 337 332 326 318 313 307 300 296 284 262 253 272 267 256 255 251 248 246 245 238 236 238 236 237 235 237 241 244 252 249 252 256 257 255 251 243 239 238 238 235 231
353 347 343 339 333 325 318 313 307 298 292 280 254 264 272 262 258 256 253 251 250 246 240 241 233 242 235 234 240 249 247 252 249 252 253 252 248 243 241 237 236 235 235
357 354 349 345 340 335 328 319 309 305 295 285 261 247 250 265 263 256 251 252 252 250 245 240 236 235 236 237 238 242 249 249 247 247 251 252 247 242 239 238 235 234 236
359 358 357 351 347 343 340 332 321 314 305 297 282 257 246 247 255 262 254 249 249 247 245 244 232 231 237 234 234 234 237 237 240 244 247 249 247 244 239 237 238 234 235
356 357 358 356 351 348 340 338 330 321 312 305 301 284 253 246 246 254 257 251 245 248 241 245 232 226 234 234 230 230 228 232 236 239 245 247 249 245 240 238 236 236 237
355 355 356 357 355 350 344 339 334 329 320 312 299 292 285 260 251 251 253 252 248 245 241 243 237 235 242 237 233 230 210 217 237 242 240 246 244 244 242 239 238 236 237
351 352 354 356 358 355 350 345 344 342 334 327 318 305 293 287 267 251 253 259 248 247 241 241 241 240 244 243 230 230 230 237 199 211 236 240 239 238 240 240 238 237 238
350 352 353 354 358 360 356 349 346 341 336 332 326 317 305 290 282 259 257 251 254 243 242 239 243 236 241 242 244 231 230 221 227 218 222 226 232 234 236 237 238 238 239
351 353 355 356 359 1 0 355 349 346 343 340 334 325 316 307 294 283 255 254 261 246 238 236 244 247 244 244 247 235 239 226 219 224 215 227 232 234 235 236 237 238 237